Flag for Panama Weather past 2 weeks in Colón, Panama

Now
81 °F

Scattered clouds.


Feels Like: 85 °F
Forecast: 78 / 83 °F
Wind: 17 mph from Northwest

Location: Marcos A. Gelabert

Current Time: Mar 29, 2015 at 2:43:15 PM

Latest Report: Mar 29, 2015 at 2:00 PM


Visibility: N/A

Pressure: 29.92 "Hg

Humidity: 74%

Dew point: 72 °F

Location of ColónLocation

Historic Weather in Colón — Graph

°F

Colón temperature yesterday

Maximum temperature yesterday: 88 °F (at 11:00 AM)
Minimum temperature yesterday: 77 °F (at 6:00 AM)
Average temperature yesterday: 83 °F

Past Weeks' High & Low Weather Summary

 TemperatureHumidityPressure
High91 °F (Mar 15, 2:00 PM)94% (Mar 21, 6:00 AM)30.04 "Hg (Mar 21, 6:00 AM)
Low73 °F (Mar 22, 6:00 AM)36% (Mar 26, 4:00 PM)29.71 "Hg (Mar 14, 4:00 PM)
Average83 °F65%29.91 "Hg
* Reported Mar 14 1:00 PM — Mar 29 1:00 PM, Colón, Weather by CustomWeather, © 2015

Note: Actual official high and low records may vary slightly from our data, if they occured in-between our weather recording intervals... More about our weather records

Advertising

Colón weather history for previous 24 hours

 ConditionsComfort  
Time TempWeatherWind HumidityBarometerVisibility
1:00 PM
Sun, Mar 29
86 °FScattered clouds.12 mph59%29.98 "HgN/A
12:00 PM90 °FScattered clouds.14 mph52%30.01 "Hg6 mi
11:00 AM88 °FScattered clouds.14 mph59%30.01 "Hg6 mi
10:00 AM86 °FScattered clouds.12 mph62%30.01 "Hg6 mi
9:00 AM82 °FPassing clouds.12 mph74%30.01 "Hg6 mi
8:00 AM81 °FPassing clouds.8 mph79%29.98 "Hg6 mi
7:00 AM77 °FPassing clouds.2 mph89%29.95 "Hg6 mi
6:00 AM77 °FPassing clouds.6 mph89%29.95 "HgN/A
10:00 PM
Sat, Mar 28
81 °FPassing clouds.3 mph84%29.95 "HgN/A
9:00 PM81 °FPassing clouds.6 mph84%29.95 "HgN/A
8:00 PM82 °FPassing clouds.6 mph74%29.92 "HgN/A
7:00 PM82 °FPassing clouds.6 mph74%29.89 "HgN/A
6:00 PM86 °FBroken clouds.8 mph66%29.86 "HgN/A
5:00 PM86 °FBroken clouds.8 mph66%29.86 "HgN/A
4:00 PM86 °FScattered showers. Scattered clouds.12 mph66%29.89 "Hg4 mi
3:00 PM88 °FScattered showers. Scattered clouds.15 mph62%29.86 "Hg4 mi
2:00 PM88 °FScattered clouds.14 mph62%29.89 "HgN/A
Weather by CustomWeather, © 2015

See weather overviewHow to use our weather pages